Wind_Speed
32 34 34 34 32 30 30 27 24 21 21 19 16 14 14 13 12 11 11 10 10 9
28 31 31 31 29 27 27 25 23 22 20 17 16 15 15 13 13 12 11 10 9 8
21 24 26 27 28 27 27 25 25 22 17 17 16 16 14 13 13 12 11 11 9 8
16 18 21 24 26 25 26 25 25 23 20 20 18 16 16 14 13 12 11 10 9 8
12 14 19 23 25 25 25 25 23 22 20 19 18 17 15 14 13 12 11 10 8 8
11 15 19 22 23 25 27 25 23 23 19 17 18 14 15 14 12 11 10 9 8 8
13 17 21 24 25 28 25 22 20 16 16 16 14 16 15 13 11 11 10 10 10 10
15 19 22 23 23 21 19 16 17 18 18 16 15 13 13 13 13 13 13 11 11 12
13 15 16 17 19 19 19 19 18 16 16 18 19 19 18 18 15 13 13 10 8 11
13 15 15 14 13 13 15 15 16 17 19 20 19 18 15 12 10 8 10 10 10 10
7 8 9 10 11 12 13 14 15 16 16 16 16 14 13 11 11 12 11 9 10 10
5 7 8 9 10 11 12 13 14 13 13 13 13 13 15 13 11 8 8 9 10 9
6 7 8 10 10 11 11 11 11 12 12 12 12 12 12 9 8 8 8 9 8 9
7 8 9 9 10 10 10 10 11 12 11 12 11 10 7 10 10 9 9 7 8 10
Wind_Direction
233 235 233 231 228 224 219 217 215 213 214 216 218 223 226 225 231 229 230 233 237 242
233 235 235 232 226 223 220 218 214 216 213 219 222 233 231 230 231 230 237 243 245 245
237 234 235 231 227 222 216 209 215 210 212 222 224 224 227 231 233 232 234 236 241 246
241 235 234 227 221 214 214 213 212 218 213 219 225 230 231 230 233 229 232 232 238 243
235 227 226 219 211 210 209 201 204 207 212 218 226 226 226 228 230 227 227 233 241 249
219 217 214 209 199 200 193 207 203 210 218 221 223 224 229 225 224 221 224 231 242 252
208 204 200 196 192 195 204 210 211 202 211 213 224 226 220 217 218 227 235 244 250 253
187 189 191 200 203 205 203 198 198 205 212 226 223 218 216 224 232 239 244 246 260 266
191 190 195 195 195 198 198 199 204 209 208 214 223 229 234 236 235 238 248 246 251 264
181 189 193 197 201 204 209 214 216 221 229 232 234 240 238 224 220 233 235 245 252 262
196 195 195 199 207 213 215 218 220 225 232 237 235 226 217 203 218 232 246 254 258 264
203 210 214 218 217 219 226 233 235 232 224 220 220 213 205 196 209 232 250 261 263 268
228 228 228 233 234 231 229 229 224 220 218 215 213 206 199 191 204 240 257 266 274 277
244 242 241 240 238 236 226 221 215 211 212 212 210 198 195 203 219 235 254 271 273 286
Height
1427 1432 1436 1440 1445 1449 1453 1457 1461 1465 1468 1471 1474 1476 1478 1481 1482 1485 1487 1489 1489 1490
1424 1427 1432 1438 1442 1446 1451 1455 1458 1462 1465 1469 1472 1474 1475 1478 1479 1481 1483 1484 1485 1487
1421 1424 1429 1434 1439 1444 1448 1452 1456 1460 1463 1466 1469 1471 1473 1475 1477 1478 1479 1481 1482 1483
1418 1422 1427 1431 1435 1441 1446 1450 1454 1457 1461 1465 1467 1469 1471 1472 1473 1475 1476 1478 1478 1480
1417 1421 1425 1428 1433 1438 1442 1447 1451 1455 1458 1462 1464 1466 1468 1469 1470 1471 1473 1474 1476 1477
1415 1418 1422 1427 1432 1435 1440 1443 1446 1451 1455 1459 1461 1463 1464 1467 1468 1469 1471 1471 1473 1474
1415 1417 1421 1425 1429 1433 1437 1441 1445 1449 1453 1456 1459 1460 1461 1464 1466 1468 1469 1469 1471 1472
1415 1418 1421 1424 1428 1432 1436 1439 1443 1447 1451 1454 1457 1458 1460 1462 1463 1465 1466 1466 1467 1469
1417 1420 1424 1426 1428 1430 1433 1437 1441 1445 1449 1452 1454 1456 1457 1458 1460 1463 1463 1464 1465 1465
1420 1421 1424 1426 1429 1431 1434 1437 1440 1443 1446 1448 1450 1452 1454 1455 1457 1459 1461 1461 1462 1462
1423 1424 1426 1428 1430 1432 1434 1436 1439 1441 1443 1446 1447 1448 1450 1452 1455 1457 1458 1458 1459 1459
1424 1426 1427 1428 1430 1432 1434 1436 1437 1439 1441 1442 1443 1445 1447 1449 1451 1454 1455 1456 1456 1456
1425 1426 1427 1429 1430 1431 1432 1433 1435 1437 1438 1440 1442 1443 1445 1447 1449 1451 1452 1453 1453 1453
1425 1426 1427 1427 1428 1429 1431 1432 1434 1435 1436 1438 1440 1441 1442 1446 1448 1448 1449 1449 1450 1450